Location: Góry Miechowskie
(50.3599°N, 20.1803°E)
Time: 13:01:52
(UTC+00:00)

ASTEX 1 - Pass Details

Date: 15 June 2024
Orbit: 717 x 737 km, 92.7° (Epoch: 15 July)

Event Time Altitude Azimuth Distance (km) Brightness Sun altitude
Exits shadow 00:35:11 - 153° (SSE) 3,104 6.3 -12.0°
Reaches altitude 10° 00:37:30 10° 146° (SSE) 2,202 5.6 -11.9°
Maximum altitude 00:42:05 43° 76° (ENE) 1,005 4.5 -11.5°
Drops below altitude 10° 00:46:42 10° 6° (N) 2,214 7.1 -11.2°
Sets 00:49:04 0° 360° (N) 3,140 7.8 -11.0°
